Regional Weather Roundup
Issued by NWS

Home | Current Version | Previous Version | Graphics & Text | Print | Product List | Glossary On
Versions: 1 2 3 4 5 6 7 8 9 10 11 12 13 14 15 16 17 18 19 20 21 22 23 24 25 26 27 28 29 30 31 32 33 34 35 36 37 38 39 40 41 42 43 44 45 46 47 48 49 50
000
ASUS43 KMKX 231200
RWRWI

WISCONSIN REGIONAL WEATHER ROUNDUP
NATIONAL WEATHER SERVICE MILWAUKEE/SULLIVAN WI
700 AM CDT THU OCT 23 2014

NOTE: "FAIR" INDICATES FEW OR NO CLOUDS BELOW 12,000 FEET WITH NO
SIGNIFICANT WEATHER AND/OR OBSTRUCTIONS TO VISIBILITY.

WIZ001-002-006>008-014>016-023>028-231300-
NORTHWEST WISCONSIN

CITY           SKY/WX    TMP DP  RH WIND       PRES   REMARKS
SUPERIOR ARPT  CLOUDY    47  47  97 CALM      29.97F
ASHLAND        CLOUDY    49  44  83 S7        30.00F
6HR MIN TEMP:  48; 6HR MAX TEMP:  53; 6HR PCP:  0.01;

HAYWARD        LGT RAIN  47  44  90 S7        30.01S FOG
6HR MIN TEMP:  47; 6HR MAX TEMP:  50; 6HR PCP:  0.08;

SIREN          CLOUDY    48  47  95 S7        29.98F
CUMBERLAND     CLOUDY    45  43  93 SE5       30.01S
RICE LAKE      CLOUDY    47  44  88 SE7       30.03F
CHETEK         DRIZZLE   47  44  91 SE6       30.03S
LADYSMITH      LGT RAIN  46  43  89 SE6       30.05F
EAU CLAIRE     NOT AVBL
MENOMONIE      DRIZZLE   48  46  93 SE5       30.03S
NEW RICHMOND   CLOUDY    49  47  93 S9        30.00S
OSCEOLA        CLOUDY    50  50 100 S7        30.02S
$$

WIZ003>005-009-010-017-018-231300-
NORTH CENTRAL WISCONSIN

CITY           SKY/WX    TMP DP  RH WIND       PRES   REMARKS
MANITOWISH WTR RAIN      42  40  89 S9        30.04F
ARBOR VITAE    CLOUDY    43  40  89 S9        30.06F
WOODRUFF       CLOUDY    43  40  89 S9        30.06F
RHINELANDER    LGT RAIN  43  40  89 S7        30.08F
6HR MIN TEMP:  41; 6HR MAX TEMP:  46; 6HR PCP:  0.01;

EAGLE RIVER    CLOUDY    44  35  70 S6        30.06F
LAND O LAKES   MOCLDY    44  37  73 S8        30.07S
PHILLIPS       CLOUDY    44  40  86 S6        30.04F
TOMAHAWK       CLOUDY    41  39  94 CALM      30.08F FOG
MEDFORD        CLOUDY    41  39  93 S7        30.07F
MERRILL        CLOUDY    41  41  99 CALM      30.09F FOG
$$

WIZ029-030-035-036-043>047-231300-
CENTRAL WISCONSIN

CITY           SKY/WX    TMP DP  RH WIND       PRES   REMARKS
WAUSAU         LGT RAIN  42  39  89 SE7       30.09F
6HR MIN TEMP:  40; 6HR MAX TEMP:  43; 6HR PCP:  0.19;

MOSINEE        LGT RAIN  39  39 100 SE8       30.11F WCI  34
MARSHFIELD     CLOUDY    43  39  86 S8        30.08F
6HR MIN TEMP:  42; 6HR MAX TEMP:  44; 6HR PCP:  0.07;

STEVENS POINT  RAIN      39  37  90 S5        30.13S
WAUPACA        PTCLDY    35  33  95 CALM      30.16S FOG
WAUTOMA        NOT AVBL
WISC RAPIDS    CLOUDY    41  38  89 SE8       30.12F
6HR MIN TEMP:  40; 6HR MAX TEMP:  42; 6HR PCP:  0.06;

CAMP DOUGLAS   NOT AVBL
$$

WIZ011>013-019>022-031-037>040-048>050-231300-
NORTHEAST WISCONSIN

CITY           SKY/WX    TMP DP  RH WIND       PRES   REMARKS
ANTIGO         CLOUDY    37  36  95 S8        30.12F FOG     WCI  31
SHAWANO          N/A     33  32  96 CALM      30.16F FOG
OCONTO         PTCLDY    30  30 100 CALM      30.17S
STURGEON BAY   CLEAR     39  37  93 S7        30.18S WCI  34
6HR MIN TEMP:  39; 6HR MAX TEMP:  43;

GREEN BAY      CLEAR     37  35  92 S6        30.17F WCI  32
6HR MIN TEMP:  36; 6HR MAX TEMP:  39;

MANITOWOC      NOT AVBL
APPLETON       PTCLDY    37  34  87 S7        30.16F WCI  32
CLINTONVILLE   CLEAR     32  30  93 CALM      30.15F FOG
OSHKOSH        CLEAR     33  31  92 S6        30.16F WCI  28
6HR MIN TEMP:  32; 6HR MAX TEMP:  38;

$$

WIZ032>034-041-042-053>061-231300-
SOUTHWEST WISCONSIN

CITY           SKY/WX    TMP DP  RH WIND       PRES   REMARKS
LA CROSSE      LGT RAIN  49  45  86 SE9       30.06F
6HR MIN TEMP:  49; 6HR MAX TEMP:  53; 6HR PCP:  0.13;

SPARTA         CLOUDY    51  37  58 SW3       30.10S
VIROQUA        CLOUDY    48  38  69 S7        30.09S
BOSCOBEL       CLOUDY    49  37  63 VRB3      30.12F
6HR MIN TEMP:  39; 6HR MAX TEMP:  49;

PRAIRIE DU CHI LGT RAIN  51  38  62 SE6       30.10F
PLATTEVILLE    CLOUDY    43  38  81 SE9       30.14F
$$

WIZ056-057-062-063-064-067-068-231300-
SOUTH CENTRAL WISCONSIN

CITY           SKY/WX    TMP DP  RH WIND       PRES   REMARKS
REEDSBURG      CLOUDY    45  37  72 S8        30.12F
BARABOO/DELLS  CLOUDY    43  34  70 S7        30.13F
LONE ROCK      NOT AVBL
MINERAL POINT  CLOUDY    43  36  75 SE9       30.13F
MADISON        MOCLDY    40  35  83 S8        30.17F WCI  34
6HR MIN TEMP:  38; 6HR MAX TEMP:  41;

MIDDLETON      MOCLDY    41  35  79 S8        30.16F
WATERTOWN      PTCLDY    32  32 100 CALM      30.18S FOG
MONROE         MOCLDY    37  36  93 S9        30.16F WCI  31
JANESVILLE     CLEAR     36  34  93 SE6       30.18S WCI  31
$$

WIZ051-052-058>065-066-070>072-231300-
SOUTHEAST WISCONSIN

CITY           SKY/WX    TMP DP  RH WIND       PRES   REMARKS
MILWAUKEE      PTCLDY    38  35  89 S5        30.20F WCI  34
6HR MIN TEMP:  33; 6HR MAX TEMP:  40;

WAUKESHA       CLEAR     32  32 100 CALM      30.21S FOG
MILWAUKEE/TIMM CLEAR     32  28  86 CALM      30.21F
RACINE         CLEAR     38  36  92 CALM      30.22F FOG
6HR MIN TEMP:  32; 6HR MAX TEMP:  40;

BURLINGTON     CLEAR     26  26  99 CALM      30.20S FOG
KENOSHA        CLEAR     37  35  92 S5        30.20F FOG     WCI  33
6HR MIN TEMP:  30; 6HR MAX TEMP:  38;

FOND DU LAC    CLEAR     34  31  88 S3        30.17F
6HR MIN TEMP:  33; 6HR MAX TEMP:  38;

SHEBOYGAN      CLEAR     30  28  92 SW5       30.19F WCI  25
6HR MIN TEMP:  27; 6HR MAX TEMP:  33;

WEST BEND      PTCLDY    32  30  93 CALM      30.20S
JUNEAU         CLEAR     35  34  95 SE5       30.19F FOG     WCI  31
$$

LSZ147-162-231300-
LAKE SUPERIOR

STATION/POSITION TIME  TEMP    WIND        PRES    WAVE
                       AIR SEA DIR/SP/G            HT/PER
                 (UTC) (F)     (DEG/KT/KT) (MB)    (FT/S)
W MID LAKE BUOY  1050   48 46  150/ 14/ 16 1016.7F   2/ 3
DEVILS ISLAND    1100   50     140/  7/  9 1016.2S
PORT WING        1100   51     190/  5/  9 1015.6R
SAXON HARBOR     1100   51     180/  7/ 13 1015.9F
$$

LMZ867-665-643>646-231300-
LAKE MICHIGAN

STATION/POSITION TIME  TEMP    WIND        PRES    WAVE
                       AIR SEA DIR/SP/G            HT/PER
                 (UTC) (F)     (DEG/KT/KT) (MB)    (FT/S)
CHAMBERS ISLAND  1100   46     180/  6/ 12 1022.0F
N MID LAKE BUOY  1050   47 51  210/ 16/ 19 1022.8F   3/ 4
NORTHPORT PIER   1100   45     180/  2/  5 1022.4S
SISTER BAY       1113             CALM       N/A
ALGOMA LAKESHORE 1041          230/  9/ 11   N/A
KEWAUNEE LAKESHO 1100   43     260/  2/  3 1021.4F
SHEBOYGAN LAKESH 1100   42 50  240/  8/  9 1023.4S
PORT WASHINGTON  1100   41     250/  5/  8 1023.4
ATWATER BUOY     1100   46     190/ 12/ 14 1023.9R
MILWAUKEE LAKESH 1100   43     220/  7/  8   N/A
S MID LAKE BUOY  1050   50 54  190/ 14/ 16 1023.5F   2/ 4
KENOSHA   LAKESH 1100   43     200/  7/ 12 1023.0S
$$

TC  - TEMPERATURE IN CELSIUS
VSB - VISIBILITY IN STATUTE MILES
WCI - WIND CHILL INDEX
HX  - HEAT INDEX




USA.gov is the U.S. government's official web portal to all federal, state and local government web resources and services.